Weather History for KSDL - February, 2014

Change the Weather History Date:

Tuesday, February 18, 2014

  Actual Average Record
Temperature  
Mean Temperature 68 °F -  
Max Temperature 81 °F 65 °F 81 °F (2014)
Min Temperature 55 °F 45 °F 39 °F (2006)
Cooling Degree Days 3    
Growing Degree Days 18 (Base 50)    
Moisture  
Dew Point 31 °F    
Average Humidity 28    
Maximum Humidity 45    
Minimum Humidity 14    
Precipitation  
Precipitation 0.00 in - - ()
Sea Level Pressure  
Sea Level Pressure 29.90 in    
Wind  
Wind Speed 1 mph (SW)    
Max Wind Speed 7 mph    
Max Gust Speed -    
Visibility 10 miles    
Events      
Averages and records for this station are not official NWS values.
T = Trace of Precipitation, MM = Missing Value Source: NWS Daily Summary

Daily Weather History Graph

Daily Weather History Graph

Search for Another Location

Airport or City:

Trip Planner

Search our weather history database for the weather conditions in past years. The results will help you decide how hot, cold, wet, or windy it might be!

Date:

Astronomy

Feb. 18, 2014 Rise Set
Actual Time 7:08 AM MST 6:14 PM MST
Civil Twilight 6:43 AM MST 6:40 PM MST
Nautical Twilight 6:14 AM MST 7:09 PM MST
Astronomical Twilight 5:45 AM MST 7:38 PM MST
Moon 9:58 PM MST (2/18) 8:55 AM MST (2/18)
Length of Visible Light 11h 56m
Length of Day
11h 06m
Waning Gibbous, 87% of the Moon is Illuminated
Feb 18
Waning Gibbous
Feb 22
Last Quarter
Mar 1
New
Mar 8
First Quarter
Mar 16
Full

Hourly Weather History & Observations

Time (MST) Temp. Dew Point Humidity Pressure Visibility Wind Dir Wind Speed Gust Speed Precip Events Conditions
12:53 AM 62.1 °F 32.0 °F 32% 29.91 in 10.0 mi Calm Calm - N/A   Clear
1:53 AM 57.9 °F 33.1 °F 39% 29.91 in 10.0 mi Calm Calm - N/A   Clear
2:53 AM 57.9 °F 32.0 °F 37% 29.89 in 10.0 mi Calm Calm - N/A   Clear
3:53 AM 57.9 °F 32.0 °F 37% 29.89 in 10.0 mi Calm Calm - N/A   Clear
4:53 AM 55.9 °F 34.0 °F 44% 29.90 in 10.0 mi Calm Calm - N/A   Clear
5:53 AM 55.0 °F 34.0 °F 45% 29.92 in 10.0 mi Calm Calm - N/A   Clear
6:53 AM 55.0 °F 33.1 °F 43% 29.93 in 10.0 mi Calm Calm - N/A   Clear
7:53 AM 55.9 °F 33.1 °F 42% 29.96 in 10.0 mi Calm Calm - N/A   Clear
8:53 AM 64.0 °F 32.0 °F 30% 29.97 in 10.0 mi Calm Calm - N/A   Clear
9:53 AM 68.0 °F 30.0 °F 24% 29.97 in 10.0 mi SW 3.5 mph - N/A   Clear
10:53 AM 73.0 °F 28.0 °F 19% 29.97 in 10.0 mi Calm Calm - N/A   Clear
11:53 AM 75.0 °F 28.0 °F 18% 29.94 in 10.0 mi Variable 3.5 mph - N/A   Clear
12:53 PM 79.0 °F 28.0 °F 15% 29.91 in 10.0 mi Variable 3.5 mph - N/A   Clear
1:53 PM 80.1 °F 28.0 °F 15% 29.88 in 10.0 mi SW 6.9 mph - N/A   Clear
2:53 PM 81.0 °F 28.0 °F 14% 29.87 in 10.0 mi West 4.6 mph - N/A   Clear
3:53 PM 81.0 °F 28.0 °F 14% 29.85 in 10.0 mi South 3.5 mph - N/A   Clear
4:53 PM 81.0 °F 28.0 °F 14% 29.85 in 10.0 mi SW 4.6 mph - N/A   Clear
5:53 PM 79.0 °F 28.9 °F 16% 29.86 in 10.0 mi West 3.5 mph - N/A   Clear
6:53 PM 75.9 °F 30.0 °F 19% 29.87 in 10.0 mi Calm Calm - N/A   Clear
7:53 PM 73.0 °F 32.0 °F 22% 29.87 in 10.0 mi Calm Calm - N/A   Clear
8:53 PM 72.0 °F 33.1 °F 24% 29.87 in 10.0 mi Calm Calm - N/A   Clear
9:53 PM 68.0 °F 35.1 °F 30% 29.87 in 10.0 mi Calm Calm - N/A   Clear
10:53 PM 66.0 °F 34.0 °F 30% 29.86 in 10.0 mi Calm Calm - N/A   Clear
11:53 PM 63.0 °F 36.0 °F 37% 29.86 in 10.0 mi Calm Calm - N/A   Clear